Погода в Эскишехире

Турция     39°46′50″N   30°30′40″E
темп.,
°C
ветер,
м/с
пор.,
м/с
влажн.,
%
обл.,
%
осадки,
мм/ч
давл.,
гПа
погр.,
м
12 мая, ср
ср1200:00+8сз22600 0.0 101412
03:00+7зсз11620 0.0 101310
06:00+6ссз11572 0.0 101210
09:00+13вюв11360 0.0 1011308
12:00+20св12262 0.0 10091101
15:00+24зсз25195 0.0 10062368
18:00+21ссз67360 0.0 1007525
21:00+14сз33545 0.0 100932
13 мая, чт
чт1300:00+12юз116026 0.0 100910
03:00+12з116399 0.0 100910
06:00+11зюз11600 0.0 100910
09:00+18юв12330 0.0 1009391
12:00+25юз47211 0.0 10082391
15:00+27юз89180 0.0 10063142
18:00+24зюз810230 0.0 10071719
21:00+17з33390 0.0 100925
14 мая, пт
пт1400:00+14зюз22440 0.0 101111
03:00+12зсз114926 0.0 101110
06:00+11ююз11530 0.0 101210
09:00+18юв12350 0.0 1012451
12:00+24зюз57220 0.0 10102040
15:00+26зюз810190 0.0 10092679
18:00+24зсз79290 0.0 10102039
21:00+15сз33600 0.0 101333
15 мая, сб
сб1500:00+14з226618 0.0 101411
03:00+12зюз117259 0.0 101410
06:00+11юз1175100 0.0 101410
09:00+17юв225220 0.0 1013424
12:00+24вюв25220 0.0 10112069
15:00+27зюз57170 0.0 10073080
18:00+26зюз672023 0.0 10061489
21:00+17сз595997 0.0 1008159
16 мая, вс
вс1600:00+15з2265100 0.0 100814
03:00+15зюз1259100 0.0 100711
06:00+15з2252100 0.0 100618
09:00+19зюз34375 0.1 1006775
12:00+23зюз782221 0.0 10053018
15:00+22сз783591 0.0 10032605
18:00+17сз785855 0.1 1006914
21:00+12сз36825 0.2 1008142